Regional Weather Roundup
Issued by NWS Little Rock, AR

Home | Current Version | Previous Version | Graphics & Text | Print | Product List | Glossary On
Versions: 1 2 3 4 5 6 7 8 9 10 11 12 13 14 15 16 17 18 19 20 21 22 23 24 25 26 27 28 29 30 31 32 33 34 35 36 37 38 39 40 41 42 43 44 45 46 47 48 49 50
000
ASUS44 KLZK 091505
RWRLZK

WEATHER ROUNDUP FOR ARKANSAS
NATIONAL WEATHER SERVICE LITTLE ROCK AR
900 AM CST FRI DEC 09 2016

NOTE: "FAIR" INDICATES FEW OR NO CLOUDS BELOW 12,000 FEET WITH NO
SIGNIFICANT WEATHER AND/OR OBSTRUCTIONS TO VISIBILITY.

ARZ001-003-010-029-091600-
NORTHWEST ARKANSAS

CITY           SKY/WX    TMP DP  RH WIND       PRES   REMARKS
FAYETTEVILLE   SUNNY     19  15  84 CALM      30.63F
FORT SMITH     CLOUDY    25  16  68 VRB3      30.70S
HARRISON       SUNNY     21  12  68 VRB3      30.63S
BENTONVILLE    SUNNY     23  10  58 E6        30.63S WCI  16
ROGERS         SUNNY     21  14  74 E6        30.63S WCI  13
SILOAM SPGS    SUNNY     19  12  73 E5        30.63R WCI  13
HIGHFILL       SUNNY     21  14  74 E3        30.62F
SPRINGDALE     SUNNY     21  14  73 E7        30.64S WCI  13
$$

ARZ004-005-016-091600-
NORTH CENTRAL ARKANSAS

CITY           SKY/WX    TMP DP  RH WIND       PRES   REMARKS
BATESVILLE     SUNNY     25  12  58 NW5       30.70S WCI  19
FLIPPIN        SUNNY     21  12  68 CALM      30.65R
MTN HOME       SUNNY     21  15  78 CALM      30.66R
$$

ARZ040-041-091600-
WEST CENTRAL ARKANSAS

CITY           SKY/WX    TMP DP  RH WIND       PRES   REMARKS
MENA           SUNNY     28  18  64 CALM      30.65R
MOUNT IDA      SUNNY     27  15  61 CALM      30.66R
$$

ARZ009-017-025-026-028-091600-
NORTHEAST ARKANSAS

CITY           SKY/WX    TMP DP  RH WIND       PRES   REMARKS
CORNING        FAIR      25  16  68 N8        30.70S WCI  16
JONESBORO      SUNNY     26  16  65 NW6       30.69S WCI  19
NEWPORT        SUNNY     25  17  72 N10       30.70S WCI  15
WALNUT RIDGE   SUNNY     25  12  58 N8        30.69S WCI  16
BLYTHEVILLE    SUNNY     31  20  63 N12       30.69R WCI  22
NW BLYTHEVILLE SUNNY     27  18  69 N7        30.69S WCI  19
$$

ARZ022-023-033-042-044-091600-
CENTRAL ARKANSAS

CITY           SKY/WX    TMP DP  RH WIND       PRES   REMARKS
LITTLE ROCK    MOSUNNY   28  16  60 N8        30.72R WCI  20
N LITTLE ROCK    N/A     26  16  66 N5        30.74R WCI  21
JACKSONVILLE   SUNNY     27  15  61 N3        30.70R
SEARCY         SUNNY     26  17  68 N6        30.73R WCI  19
HOT SPRINGS    SUNNY     28  15  58 NE8       30.70R WCI  20
RUSSELLVILLE   CLOUDY    27  14  58 N3        30.70S
CLINTON        FAIR      25  16  68 CALM      30.70R
$$

ARZ036-091600-
EAST ARKANSAS

CITY           SKY/WX    TMP DP  RH WIND       PRES   REMARKS
WEST MEMPHIS   SUNNY     28  17  63 NE8       30.68R WCI  20
$$

ARZ050-053-066-070-073-091600-
SOUTHWEST ARKANSAS

CITY           SKY/WX    TMP DP  RH WIND       PRES   REMARKS
ARKADELPHIA    FAIR      29  19  66 NE8G16    30.72R WCI  21
CAMDEN         MIX PCPN  28  19  69 N6        30.72R WCI  22
TEXARKANA      SUNNY     29  18  63 E6        30.69R WCI  23
EL DORADO      SUNNY     29  19  66 N9        30.70R WCI  20
DE QUEEN       SUNNY     28  21  75 CALM      30.69R
$$

ARZ056-057-069-091600-
SOUTHEAST ARKANSAS

CITY           SKY/WX    TMP DP  RH WIND       PRES   REMARKS
PINE BLUFF     FLURRIES  28  18  66 N12       30.70S WCI  18
STUTTGART      SUNNY     28  14  54 N10       30.71R WCI  19
MONTICELLO     SUNNY     30  19  63 NE13      30.69R WCI  20

$$





USA.gov is the U.S. government's official web portal to all federal, state and local government web resources and services.